This demonstration page uses our WeatherBlox Daily Observations layout. Learn more.

Left ArrowRight Arrow

39.92423, -83.80882

Hourly Observations for April 25, 2020

Temp ( °F °C ) Dew Point ( °F °C ) Humidity (%) Winds ( mph kmh ) Pressure ( in mb ) Visibility ( mi km ) Precip ( " mm )
12:56 am 00:56 Clear 49 9.4 48 8.9 97 97 E 5 7 29.91 1013 9 14.48406 0 0
1:56 am 01:56 Clear 47 8.3 46 7.8 97 97 E 6 9 29.92 1013 9 14.48406 0 0
2:56 am 02:56 Mostly Cloudy 48 8.9 47 8.3 96 96 E 6 9 29.91 1013 9 14.48406 0 0
3:56 am 03:56 Cloudy 50 10 48 8.9 93 93 ESE 10 17 29.89 1012 10 16.0934 0 0
4:56 am 04:56 Clear 48 8.9 46 7.8 93 93 E 8 13 29.9 1013 10 16.0934 0 0
5:56 am 05:56 Mostly Cloudy 46 7.8 45 7.2 96 96 E 8 13 29.92 1013 10 16.0934 0.76 19.304
6:56 am 06:56 Cloudy 48 8.9 47 8.3 96 96 E 9 15 29.93 1014 10 16.0934 0 0
7:56 am 07:56 Cloudy 50 10 48 8.9 93 93 E 10 17 29.93 1014 10 16.0934 0.01 0.254
8:56 am 08:56 Sunny 54 12.2 49 9.4 83 83 ESE 12 19 29.92 1013 10 16.0934 0 0
9:56 am 09:56 Sunny 56 13.3 50 10 81 81 ESE 13 20 29.91 1013 10 16.0934 0 0
10:56 am 10:56 Sunny 60 15.6 53 11.7 78 78 SE 13 20 29.9 1013 10 16.0934 0 0
11:56 am 11:56 Sunny 63 17.2 52 11.1 68 68 ESE 15 24 29.88 1012 10 16.0934 0 0
12:56 pm 12:56 Partly Cloudy 66 18.9 52 11.1 61 61 ESE 15 24 29.85 1011 10 16.0934 0 0
1:56 pm 13:56 Partly Cloudy 67 19.4 49 9.4 53 53 SE 18 30 29.83 1010 10 16.0934 0 0
2:56 pm 14:56 Partly Cloudy 66 18.9 50 10 56 56 ESE 15 24 29.81 1010 10 16.0934 0 0
3:56 pm 15:56 Mostly Cloudy 67 19.4 51 10.6 57 57 E 16 26 29.78 1008 10 16.0934 0 0
4:56 pm 16:56 Mostly Cloudy 66 18.9 48 8.9 52 52 E 14 22 29.76 1008 10 16.0934 0 0
5:56 pm 17:56 Cloudy 65 18.3 48 8.9 54 54 ESE 9 15 29.75 1008 10 16.0934 0 0
6:56 pm 18:56 Cloudy 64 17.8 48 8.9 56 56 E 9 15 29.74 1007 10 16.0934 0 0
7:56 pm 19:56 Mostly Cloudy 57 13.9 51 10.6 81 81 S 7 11 29.74 1007 10 16.0934 0.37 9.398
8:56 pm 20:56 Cloudy 56 13.3 52 11.1 87 87 Calm 29.75 1007 10 16.0934 0.02 0.508
9:56 pm 21:56 Cloudy with Light Rain 53 11.7 53 11.7 100 100 NE 12 19 29.76 1008 8 12.87472 0.03 0.762
10:13 pm 22:13 Cloudy with Light Rain 52 11 52 11 100 100 NE 12 19 29.76 1008 8 12.87472 0.001 0.001
10:26 pm 22:26 Cloudy with Light Rain 52 11 52 11 100 100 NNE 12 19 29.76 1008 8 12.87472 0.001 0.001
10:56 pm 22:56 Cloudy 51 10.6 51 10.6 100 100 NNE 8 13 29.75 1007 7 11.26538 0.001 0.001
11:24 pm 23:24 Cloudy 52 11 52 11 100 100 NNE 12 19 29.75 1007 7 11.26538 0.01 0.254
11:36 pm 23:36 Cloudy with Light Rain 50 10 50 10 100 100 NNE 13 20 29.74 1007 7 11.26538 0.01 0.254
11:56 pm 23:56 Cloudy 50 10 50 10 100 100 NNE 15 24 29.72 1007 9 14.48406 0.01 0.254

Powered by AerisWeather